This is the latest recevied weather packets stored in our database for station/object EW1917. If no packets are shown the sender has not sent any weather packets the latest 10 day(s).
| Time | Temp. | Humidity | Pressure | Rain* | Wind** | Luminosity | Snow |
|---|---|---|---|---|---|---|---|
| 1778268177 | 16.67° C | 66% | 1014.3 hPa | 0 mm | - | 0 W/m² | - |
| 1778264874 | 17.22° C | 69% | 1013.4 hPa | 0 mm | - | 7 W/m² | - |
| 1778264573 | 17.78° C | 69% | 1013.3 hPa | 0 mm | - | 12 W/m² | - |
| 1778263071 | 17.78° C | 70% | 1013 hPa | 0 mm | - | 58 W/m² | - |
| 1778262771 | 17.78° C | 70% | 1013 hPa | 0 mm | - | 63 W/m² | - |
| 1778261271 | 18.33° C | 70% | 1012.8 hPa | 0 mm | - | 76 W/m² | - |
| 1778260377 | 18.33° C | 69% | 1012.7 hPa | 0 mm | - | 74 W/m² | - |
| 1778260071 | 18.33° C | 69% | 1012.7 hPa | 0 mm | - | 79 W/m² | - |
| 1778259171 | 18.33° C | 69% | 1012.4 hPa | 0 mm | - | 109 W/m² | - |
| 1778257975 | 18.89° C | 68% | 1012.3 hPa | 0 mm | - | 151 W/m² | - |
| 1778255574 | 18.89° C | 67% | 1012.1 hPa | 0 mm | - | 186 W/m² | - |
| 1778254374 | 18.89° C | 66% | 1012 hPa | 0 mm | - | 250 W/m² | - |
| 1778254071 | 19.44° C | 69% | 1012.1 hPa | 0 mm | - | 311 W/m² | - |
| 1778253471 | 18.89° C | 68% | 1012.1 hPa | 0 mm | - | 301 W/m² | - |
| 1778253171 | 18.89° C | 67% | 1012.1 hPa | 0 mm | - | 304 W/m² | - |
| 1778252571 | 19.44° C | 68% | 1012 hPa | 0 mm | - | 264 W/m² | - |
| 1778252271 | 19.44° C | 68% | 1012.1 hPa | 0 mm | - | 281 W/m² | - |
| 1778251977 | 18.89° C | 67% | 1012.1 hPa | 0 mm | - | 295 W/m² | - |
| 1778251671 | 18.89° C | 68% | 1012.1 hPa | 0 mm | - | 302 W/m² | - |
| 1778247775 | 19.44° C | 65% | 1012.4 hPa | 0 mm | - | 457 W/m² | - |
| 1778247177 | 19.44° C | 65% | 1012.4 hPa | 0 mm | - | 424 W/m² | - |
| 1778246874 | 18.89° C | 67% | 1012.4 hPa | 0 mm | - | 396 W/m² | - |
| 1778246271 | 18.89° C | 66% | 1012.4 hPa | 0 mm | - | 346 W/m² | - |
| 1778245074 | 18.89° C | 67% | 1012.3 hPa | 0 mm | - | 323 W/m² | - |
| 1778244474 | 18.89° C | 66% | 1012.4 hPa | 0 mm | - | 306 W/m² | - |
* Rain latest hour (hover to see other rain measurements)
** Current wind speed in m/s (hover to see current wind gust speed)